CW2334 Weather Reports


time (UTC)temp
C
wind
direction
speed
KPH
gust
KPH
rain 1hr
cm
rain 24hr
cm
rain mn
cm
humidity
%
barometer
mb
20260506112333 7 325 0.0 0.0 0.00 3.40 0.79 97 1007.3
20260506105333 7 325 0.0 6.4 0.00 3.40 0.79 97 1006.7
20260506102333 7 325 0.0 3.2 0.08 3.40 0.79 97 1005.9
20260506095332 7 325 0.0 6.4 0.13 3.40 0.79 97 1006.3
20260506092332 7 325 0.0 0.0 0.13 3.33 0.71 97 1006.6
20260506085331 7 325 0.0 0.0 0.20 3.28 0.66 97 1006.0
20260506082331 7 325 0.0 0.0 0.20 3.20 0.58 97 1006.8
20260506072330 7 325 0.0 0.0 0.05 3.02 0.38 97 1006.2
20260506062330 7 325 0.0 0.0 0.20 2.97 0.33 97 1006.5
20260506042327 8 325 0.0 3.2 0.13 2.69 0.05 97 1007.6
20260506035327 9 325 0.0 1.6 0.25 2.64 0.00 97 1007.9
20260506032327 9 325 0.0 0.0 0.38 2.57 2.57 97 1008.2
20260506025326 9 325 0.0 6.4 0.43 2.39 2.39 97 1007.8
20260506022326 9 325 0.0 3.2 0.41 2.18 2.18 97 1007.4
20260506015325 9 325 0.0 0.0 0.28 1.96 1.96 97 1007.4
20260506012325 9 325 0.0 3.2 0.15 1.78 1.78 96 1007.1
20260506005325 9 325 0.0 0.0 0.08 1.68 1.68 96 1007.1
20260506002324 9 325 0.0 0.0 0.18 1.63 1.63 96 1006.7
20260505235324 9 325 0.0 1.6 0.46 1.60 1.60 96 1006.7
20260505232324 9 325 0.0 6.4 0.41 1.45 1.45 95 1006.7
20260505225323 9 319 0.0 6.4 0.25 1.14 1.14 95 1006.6
20260505222323 10 319 0.0 3.2 0.28 1.04 1.04 95 1006.9
20260505215322 10 319 0.0 8.0 0.61 0.89 0.89 94 1006.6
20260505212323 12 328 8.0 11.3 0.61 0.76 0.76 93 1006.9
20260505202321 13 267 0.0 1.6 0.08 0.15 0.15 92 1006.4
20260505195321 14 267 1.6 6.4 0.08 0.10 0.10 89 1006.5
20260505192320 16 267 0.0 6.4 0.05 0.08 0.08 84 1006.7
20260505185320 17 267 0.0 6.4 0.00 0.03 0.03 75 1006.7
20260505175319 18 329 9.7 12.9 0.00 0.03 0.03 68 1006.6
20260505172319 18 317 1.6 9.7 0.00 0.03 0.03 69 1006.4
20260505165318 19 308 0.0 11.3 0.00 0.03 0.03 64 1006.3
20260505122314 16 180 0.0 8.0 0.00 0.03 0.03 74 1004.8
20260505115314 16 155 3.2 9.7 0.00 0.03 0.03 75 1004.5